| time (UTC) | temp C | wind direction | speed KPH | gust KPH | rain 1hr cm | rain 24hr cm | rain mn cm | humidity % | barometer mb |
| 20260505214222 | 23 | 203 | 3.2 | 8.0 | 0.00 | 0.00 | 0.00 | 59 | 1008.3 |
| 20260505214043 | 23 | 199 | 3.2 | 8.0 | 0.00 | 0.00 | 0.00 | 60 | 1008.3 |
| 20260505213822 | 23 | 196 | 3.2 | 8.0 | 0.00 | 0.00 | 0.00 | 58 | 1008.2 |
| 20260505213622 | 23 | 191 | 3.2 | 8.0 | 0.00 | 0.00 | 0.00 | 58 | 1008.3 |
| 20260505213422 | 23 | 194 | 3.2 | 8.0 | 0.00 | 0.00 | 0.00 | 58 | 1008.3 |
| 20260505213222 | 23 | 189 | 3.2 | 8.0 | 0.00 | 0.00 | 0.00 | 58 | 1008.4 |
| 20260505213022 | 23 | 187 | 3.2 | 8.0 | 0.00 | 0.00 | 0.00 | 59 | 1008.5 |
| 20260505212822 | 23 | 185 | 3.2 | 8.0 | 0.00 | 0.00 | 0.00 | 58 | 1008.4 |
| 20260505212622 | 23 | 184 | 3.2 | 8.0 | 0.00 | 0.00 | 0.00 | 57 | 1008.5 |
| 20260505212422 | 23 | 178 | 3.2 | 8.0 | 0.00 | 0.00 | 0.00 | 58 | 1008.5 |
| 20260505212223 | 24 | 183 | 3.2 | 8.0 | 0.00 | 0.00 | 0.00 | 57 | 1008.4 |
| 20260505212022 | 24 | 192 | 3.2 | 9.7 | 0.00 | 0.00 | 0.00 | 57 | 1008.5 |
| 20260505211822 | 24 | 203 | 3.2 | 9.7 | 0.00 | 0.00 | 0.00 | 58 | 1008.4 |
| 20260505211622 | 24 | 210 | 3.2 | 9.7 | 0.00 | 0.00 | 0.00 | 58 | 1008.4 |
| 20260505211422 | 24 | 214 | 3.2 | 9.7 | 0.00 | 0.00 | 0.00 | 58 | 1008.4 |
| 20260505211222 | 24 | 214 | 3.2 | 9.7 | 0.00 | 0.00 | 0.00 | 58 | 1008.5 |
| 20260505211043 | 23 | 213 | 3.2 | 8.0 | 0.00 | 0.00 | 0.00 | 58 | 1008.4 |
| 20260505210822 | 23 | 210 | 3.2 | 4.8 | 0.00 | 0.00 | 0.00 | 59 | 1008.4 |
| 20260505210622 | 23 | 214 | 3.2 | 6.4 | 0.00 | 0.00 | 0.00 | 58 | 1008.4 |
| 20260505210422 | 23 | 218 | 3.2 | 8.0 | 0.00 | 0.00 | 0.00 | 58 | 1008.5 |
| 20260505210222 | 23 | 219 | 3.2 | 8.0 | 0.00 | 0.00 | 0.00 | 57 | 1008.6 |
| 20260505210022 | 23 | 215 | 3.2 | 9.7 | 0.00 | 0.00 | 0.00 | 58 | 1008.6 |
| 20260505205822 | 23 | 215 | 4.8 | 9.7 | 0.00 | 0.00 | 0.00 | 58 | 1008.7 |
| 20260505205622 | 23 | 214 | 4.8 | 12.9 | 0.00 | 0.00 | 0.00 | 58 | 1008.7 |
| 20260505205443 | 23 | 211 | 4.8 | 12.9 | 0.00 | 0.00 | 0.00 | 58 | 1008.6 |
| 20260505205243 | 23 | 212 | 4.8 | 12.9 | 0.00 | 0.00 | 0.00 | 56 | 1008.7 |
| 20260505205023 | 23 | 212 | 4.8 | 12.9 | 0.00 | 0.00 | 0.00 | 57 | 1008.7 |
| 20260505204822 | 23 | 212 | 4.8 | 12.9 | 0.00 | 0.00 | 0.00 | 57 | 1008.8 |
| 20260505204643 | 23 | 210 | 4.8 | 9.7 | 0.00 | 0.00 | 0.00 | 56 | 1008.6 |
| 20260505204422 | 23 | 208 | 4.8 | 9.7 | 0.00 | 0.00 | 0.00 | 55 | 1008.6 |
| 20260505204222 | 23 | 208 | 4.8 | 9.7 | 0.00 | 0.00 | 0.00 | 56 | 1008.7 |
| 20260505204044 | 23 | 212 | 4.8 | 9.7 | 0.00 | 0.00 | 0.00 | 57 | 1008.8 |
| 20260505203822 | 23 | 211 | 4.8 | 9.7 | 0.00 | 0.00 | 0.00 | 56 | 1008.9 |
| 20260505203622 | 23 | 211 | 4.8 | 9.7 | 0.00 | 0.00 | 0.00 | 55 | 1008.9 |
| 20260505203422 | 23 | 211 | 4.8 | 12.9 | 0.00 | 0.00 | 0.00 | 56 | 1008.9 |
| 20260505203222 | 23 | 210 | 4.8 | 12.9 | 0.00 | 0.00 | 0.00 | 56 | 1008.9 |
| 20260505203043 | 23 | 209 | 4.8 | 12.9 | 0.00 | 0.00 | 0.00 | 57 | 1009.0 |
| 20260505202822 | 23 | 209 | 4.8 | 12.9 | 0.00 | 0.00 | 0.00 | 56 | 1008.9 |
| 20260505202622 | 23 | 210 | 6.4 | 12.9 | 0.00 | 0.00 | 0.00 | 55 | 1008.9 |
| 20260505202422 | 23 | 214 | 6.4 | 12.9 | 0.00 | 0.00 | 0.00 | 55 | 1009.0 |
| 20260505202222 | 23 | 211 | 6.4 | 12.9 | 0.00 | 0.00 | 0.00 | 55 | 1009.0 |
| 20260505202022 | 23 | 212 | 6.4 | 12.9 | 0.00 | 0.00 | 0.00 | 55 | 1009.0 |
| 20260505201823 | 24 | 213 | 6.4 | 14.5 | 0.00 | 0.00 | 0.00 | 54 | 1008.9 |
| 20260505201622 | 24 | 212 | 6.4 | 14.5 | 0.00 | 0.00 | 0.00 | 55 | 1009.0 |
| 20260505201443 | 24 | 211 | 4.8 | 14.5 | 0.00 | 0.00 | 0.00 | 55 | 1009.0 |
| 20260505201222 | 24 | 214 | 4.8 | 14.5 | 0.00 | 0.00 | 0.00 | 55 | 1009.0 |
| 20260505201022 | 24 | 210 | 4.8 | 14.5 | 0.00 | 0.00 | 0.00 | 55 | 1009.1 |
| 20260505200822 | 24 | 212 | 4.8 | 11.3 | 0.00 | 0.00 | 0.00 | 55 | 1009.2 |
| 20260505200622 | 24 | 212 | 4.8 | 11.3 | 0.00 | 0.00 | 0.00 | 57 | 1009.2 |
| 20260505200422 | 24 | 209 | 4.8 | 11.3 | 0.00 | 0.00 | 0.00 | 56 | 1009.2 |
| 20260505200222 | 24 | 209 | 4.8 | 11.3 | 0.00 | 0.00 | 0.00 | 57 | 1009.3 |
| 20260505200022 | 24 | 212 | 4.8 | 11.3 | 0.00 | 0.00 | 0.00 | 57 | 1009.2 |
| 20260505195822 | 24 | 206 | 4.8 | 11.3 | 0.00 | 0.00 | 0.00 | 57 | 1009.3 |
| 20260505195623 | 23 | 210 | 4.8 | 11.3 | 0.00 | 0.00 | 0.00 | 58 | 1009.3 |
| 20260505195422 | 23 | 211 | 3.2 | 11.3 | 0.00 | 0.00 | 0.00 | 60 | 1009.3 |
| 20260505195243 | 24 | 203 | 3.2 | 11.3 | 0.00 | 0.00 | 0.00 | 58 | 1009.2 |
| 20260505195022 | 23 | 199 | 4.8 | 11.3 | 0.00 | 0.00 | 0.00 | 58 | 1009.3 |
| 20260505194822 | 23 | 206 | 4.8 | 11.3 | 0.00 | 0.00 | 0.00 | 58 | 1009.4 |
| 20260505194643 | 23 | 197 | 4.8 | 9.7 | 0.00 | 0.00 | 0.00 | 59 | 1009.4 |
| 20260505194422 | 23 | 200 | 6.4 | 9.7 | 0.00 | 0.00 | 0.00 | 59 | 1009.3 |
| 20260505194243 | 23 | 207 | 6.4 | 11.3 | 0.00 | 0.00 | 0.00 | 58 | 1009.2 |
| 20260505194022 | 23 | 210 | 6.4 | 11.3 | 0.00 | 0.00 | 0.00 | 59 | 1009.3 |
| 20260505193843 | 23 | 207 | 6.4 | 11.3 | 0.00 | 0.00 | 0.00 | 59 | 1009.3 |
| 20260505193622 | 23 | 213 | 6.4 | 14.5 | 0.00 | 0.00 | 0.00 | 58 | 1009.4 |
| 20260505193443 | 23 | 214 | 6.4 | 14.5 | 0.00 | 0.00 | 0.00 | 58 | 1009.4 |
| 20260505193222 | 23 | 211 | 4.8 | 14.5 | 0.00 | 0.00 | 0.00 | 58 | 1009.6 |
| 20260505193022 | 23 | 211 | 4.8 | 16.1 | 0.00 | 0.00 | 0.00 | 57 | 1009.5 |
| 20260505192822 | 23 | 205 | 4.8 | 16.1 | 0.00 | 0.00 | 0.00 | 56 | 1009.5 |
| 20260505192622 | 23 | 202 | 4.8 | 16.1 | 0.00 | 0.00 | 0.00 | 56 | 1009.6 |
| 20260505192422 | 23 | 200 | 4.8 | 16.1 | 0.00 | 0.00 | 0.00 | 56 | 1009.7 |
| 20260505192222 | 23 | 202 | 4.8 | 16.1 | 0.00 | 0.00 | 0.00 | 56 | 1009.8 |
| 20260505192043 | 23 | 202 | 4.8 | 11.3 | 0.00 | 0.00 | 0.00 | 56 | 1009.9 |
| 20260505191822 | 23 | 209 | 3.2 | 12.9 | 0.00 | 0.00 | 0.00 | 57 | 1009.9 |
| 20260505191644 | 23 | 213 | 3.2 | 12.9 | 0.00 | 0.00 | 0.00 | 58 | 1009.9 |
| 20260505191422 | 23 | 210 | 3.2 | 12.9 | 0.00 | 0.00 | 0.00 | 57 | 1009.9 |
| 20260505191222 | 23 | 213 | 3.2 | 12.9 | 0.00 | 0.00 | 0.00 | 57 | 1009.9 |
| 20260505191022 | 23 | 211 | 3.2 | 12.9 | 0.00 | 0.00 | 0.00 | 59 | 1009.9 |
| 20260505190822 | 23 | 211 | 4.8 | 9.7 | 0.00 | 0.00 | 0.00 | 59 | 1010.0 |
| 20260505190622 | 23 | 212 | 4.8 | 9.7 | 0.00 | 0.00 | 0.00 | 59 | 1010.0 |
| 20260505190422 | 23 | 215 | 4.8 | 12.9 | 0.00 | 0.00 | 0.00 | 58 | 1009.9 |
| 20260505190222 | 23 | 211 | 4.8 | 12.9 | 0.00 | 0.00 | 0.00 | 58 | 1010.0 |
| 20260505190022 | 23 | 210 | 4.8 | 12.9 | 0.00 | 0.00 | 0.00 | 60 | 1010.0 |
| 20260505185822 | 23 | 207 | 4.8 | 12.9 | 0.00 | 0.00 | 0.00 | 58 | 1009.9 |
| 20260505185643 | 23 | 206 | 4.8 | 12.9 | 0.00 | 0.00 | 0.00 | 58 | 1010.1 |
| 20260505185422 | 23 | 199 | 4.8 | 12.9 | 0.00 | 0.00 | 0.00 | 58 | 1010.0 |
| 20260505185243 | 23 | 198 | 4.8 | 12.9 | 0.00 | 0.00 | 0.00 | 58 | 1010.1 |
| 20260505185043 | 23 | 200 | 4.8 | 12.9 | 0.00 | 0.00 | 0.00 | 58 | 1010.1 |
| 20260505184822 | 23 | 195 | 4.8 | 12.9 | 0.00 | 0.00 | 0.00 | 59 | 1010.1 |
| 20260505184622 | 23 | 197 | 4.8 | 12.9 | 0.00 | 0.00 | 0.00 | 59 | 1010.1 |
| 20260505184422 | 23 | 201 | 4.8 | 11.3 | 0.00 | 0.00 | 0.00 | 60 | 1010.1 |
| 20260505184223 | 22 | 206 | 4.8 | 11.3 | 0.00 | 0.00 | 0.00 | 61 | 1010.2 |
| 20260505184022 | 22 | 207 | 4.8 | 9.7 | 0.00 | 0.00 | 0.00 | 60 | 1010.1 |
| 20260505183822 | 22 | 212 | 3.2 | 9.7 | 0.00 | 0.00 | 0.00 | 62 | 1010.1 |
| 20260505183622 | 22 | 214 | 3.2 | 9.7 | 0.00 | 0.00 | 0.00 | 61 | 1010.1 |
| 20260505183443 | 22 | 216 | 3.2 | 9.7 | 0.00 | 0.00 | 0.00 | 62 | 1010.1 |
| 20260505183222 | 22 | 217 | 3.2 | 11.3 | 0.00 | 0.00 | 0.00 | 63 | 1010.2 |
| 20260505183022 | 21 | 217 | 3.2 | 11.3 | 0.00 | 0.00 | 0.00 | 63 | 1010.2 |
| 20260505182822 | 21 | 217 | 3.2 | 11.3 | 0.00 | 0.00 | 0.00 | 64 | 1010.1 |
| 20260505182622 | 21 | 216 | 3.2 | 11.3 | 0.00 | 0.00 | 0.00 | 64 | 1010.1 |
| 20260505182422 | 21 | 214 | 3.2 | 11.3 | 0.00 | 0.00 | 0.00 | 63 | 1010.1 |
| 20260505182222 | 21 | 212 | 3.2 | 12.9 | 0.00 | 0.00 | 0.00 | 64 | 1010.2 |
| 20260505182022 | 21 | 208 | 3.2 | 12.9 | 0.00 | 0.00 | 0.00 | 65 | 1010.3 |
| 20260505181822 | 21 | 209 | 3.2 | 12.9 | 0.00 | 0.00 | 0.00 | 64 | 1010.2 |
| 20260505181622 | 21 | 206 | 3.2 | 12.9 | 0.00 | 0.00 | 0.00 | 64 | 1010.3 |
| 20260505181422 | 21 | 206 | 4.8 | 12.9 | 0.00 | 0.00 | 0.00 | 64 | 1010.3 |
| 20260505181243 | 21 | 206 | 4.8 | 9.7 | 0.00 | 0.00 | 0.00 | 64 | 1010.3 |
| 20260505181022 | 21 | 210 | 4.8 | 9.7 | 0.00 | 0.00 | 0.00 | 66 | 1010.3 |
| 20260505180822 | 21 | 212 | 4.8 | 11.3 | 0.00 | 0.00 | 0.00 | 66 | 1010.3 |
| 20260505180622 | 21 | 217 | 4.8 | 11.3 | 0.00 | 0.00 | 0.00 | 65 | 1010.3 |
| 20260505180422 | 21 | 218 | 3.2 | 11.3 | 0.00 | 0.00 | 0.00 | 65 | 1010.4 |
| 20260505180222 | 21 | 219 | 3.2 | 11.3 | 0.00 | 0.00 | 0.00 | 65 | 1010.3 |
| 20260505180022 | 21 | 218 | 3.2 | 11.3 | 0.00 | 0.00 | 0.00 | 65 | 1010.3 |
| 20260505175822 | 21 | 217 | 3.2 | 11.3 | 0.00 | 0.00 | 0.00 | 65 | 1010.5 |
| 20260505175622 | 21 | 214 | 3.2 | 11.3 | 0.00 | 0.00 | 0.00 | 66 | 1010.5 |
| 20260505175422 | 21 | 209 | 3.2 | 8.0 | 0.00 | 0.00 | 0.00 | 66 | 1010.5 |
| 20260505175222 | 21 | 211 | 3.2 | 8.0 | 0.00 | 0.00 | 0.00 | 66 | 1010.6 |
| 20260505175022 | 21 | 211 | 3.2 | 8.0 | 0.00 | 0.00 | 0.00 | 66 | 1010.6 |
| 20260505174822 | 21 | 209 | 4.8 | 9.7 | 0.00 | 0.18 | 0.00 | 65 | 1010.6 |
| 20260505174622 | 21 | 209 | 4.8 | 9.7 | 0.00 | 0.18 | 0.00 | 65 | 1010.7 |
| 20260505174422 | 21 | 210 | 4.8 | 9.7 | 0.00 | 0.18 | 0.00 | 65 | 1010.6 |
| 20260505174222 | 22 | 208 | 4.8 | 9.7 | 0.00 | 0.18 | 0.00 | 65 | 1010.6 |
| 20260505174022 | 22 | 212 | 4.8 | 9.7 | 0.00 | 0.18 | 0.00 | 64 | 1010.5 |
| 20260505173822 | 22 | 213 | 3.2 | 16.1 | 0.00 | 0.18 | 0.00 | 65 | 1010.5 |
| 20260505173644 | 22 | 213 | 3.2 | 16.1 | 0.00 | 0.18 | 0.00 | 65 | 1010.6 |
| 20260505173422 | 22 | 211 | 3.2 | 16.1 | 0.00 | 0.18 | 0.00 | 66 | 1010.7 |
| 20260505173223 | 22 | 208 | 1.6 | 16.1 | 0.00 | 0.18 | 0.00 | 65 | 1010.7 |
| 20260505173022 | 22 | 205 | 1.6 | 16.1 | 0.00 | 0.18 | 0.00 | 66 | 1010.7 |
| 20260505172822 | 22 | 205 | 1.6 | 8.0 | 0.00 | 0.18 | 0.00 | 66 | 1010.7 |
| 20260505172623 | 22 | 205 | 1.6 | 8.0 | 0.00 | 0.18 | 0.00 | 66 | 1010.7 |
| 20260505172443 | 22 | 204 | 3.2 | 8.0 | 0.00 | 0.18 | 0.00 | 66 | 1010.7 |
| 20260505172222 | 22 | 213 | 3.2 | 8.0 | 0.00 | 0.18 | 0.00 | 66 | 1010.6 |
| 20260505172022 | 22 | 208 | 3.2 | 6.4 | 0.00 | 0.18 | 0.00 | 68 | 1010.7 |
| 20260505171822 | 22 | 210 | 3.2 | 9.7 | 0.00 | 0.18 | 0.00 | 68 | 1010.7 |
| 20260505171622 | 22 | 209 | 4.8 | 9.7 | 0.00 | 0.18 | 0.00 | 67 | 1010.8 |
| 20260505171422 | 22 | 210 | 4.8 | 9.7 | 0.00 | 0.18 | 0.00 | 67 | 1010.8 |
| 20260505171222 | 22 | 211 | 4.8 | 9.7 | 0.00 | 0.18 | 0.00 | 66 | 1010.9 |
| 20260505171022 | 22 | 214 | 4.8 | 11.3 | 0.00 | 0.18 | 0.00 | 66 | 1010.9 |
| 20260505170822 | 22 | 211 | 4.8 | 11.3 | 0.00 | 0.18 | 0.00 | 66 | 1011.0 |
| 20260505170622 | 22 | 211 | 4.8 | 11.3 | 0.00 | 0.18 | 0.00 | 65 | 1011.1 |
| 20260505170422 | 22 | 210 | 4.8 | 11.3 | 0.00 | 0.18 | 0.00 | 65 | 1011.0 |
| 20260505170243 | 22 | 210 | 4.8 | 11.3 | 0.00 | 0.18 | 0.00 | 65 | 1011.0 |
| 20260505170022 | 22 | 211 | 4.8 | 11.3 | 0.00 | 0.18 | 0.00 | 65 | 1011.0 |
| 20260505165843 | 22 | 213 | 4.8 | 11.3 | 0.00 | 0.18 | 0.00 | 66 | 1010.9 |
| 20260505165643 | 22 | 212 | 4.8 | 11.3 | 0.00 | 0.18 | 0.00 | 67 | 1011.0 |
| 20260505165422 | 22 | 210 | 4.8 | 11.3 | 0.00 | 0.18 | 0.00 | 65 | 1010.9 |
| 20260505165222 | 22 | 210 | 4.8 | 11.3 | 0.00 | 0.18 | 0.00 | 66 | 1011.0 |
| 20260505165022 | 22 | 208 | 4.8 | 9.7 | 0.00 | 0.18 | 0.00 | 66 | 1011.0 |
| 20260505164843 | 22 | 207 | 4.8 | 9.7 | 0.00 | 0.18 | 0.00 | 66 | 1011.1 |
| 20260505164622 | 22 | 209 | 4.8 | 11.3 | 0.00 | 0.18 | 0.00 | 66 | 1011.2 |
| 20260505164422 | 22 | 211 | 4.8 | 11.3 | 0.00 | 0.18 | 0.00 | 67 | 1011.2 |
| 20260505164222 | 22 | 212 | 3.2 | 11.3 | 0.00 | 0.18 | 0.00 | 67 | 1011.2 |
| 20260505164022 | 22 | 209 | 4.8 | 11.3 | 0.00 | 0.18 | 0.00 | 66 | 1011.3 |
| 20260505163843 | 22 | 210 | 4.8 | 11.3 | 0.00 | 0.18 | 0.00 | 66 | 1011.4 |
| 20260505163623 | 22 | 210 | 4.8 | 9.7 | 0.00 | 0.18 | 0.00 | 68 | 1011.4 |
| 20260505163444 | 22 | 209 | 3.2 | 9.7 | 0.00 | 0.18 | 0.00 | 68 | 1011.4 |
| 20260505163223 | 21 | 210 | 3.2 | 9.7 | 0.00 | 0.18 | 0.00 | 67 | 1011.4 |
| 20260505163022 | 21 | 213 | 3.2 | 9.7 | 0.00 | 0.18 | 0.00 | 67 | 1011.4 |
| 20260505162822 | 21 | 211 | 3.2 | 8.0 | 0.00 | 0.18 | 0.00 | 67 | 1011.5 |
| 20260505162622 | 21 | 214 | 3.2 | 11.3 | 0.00 | 0.18 | 0.00 | 67 | 1011.5 |
| 20260505162422 | 21 | 221 | 3.2 | 11.3 | 0.00 | 0.18 | 0.00 | 68 | 1011.6 |
| 20260505162222 | 21 | 217 | 3.2 | 11.3 | 0.00 | 0.18 | 0.00 | 69 | 1011.7 |
| 20260505162022 | 21 | 218 | 3.2 | 11.3 | 0.00 | 0.18 | 0.00 | 68 | 1011.8 |
| 20260505161823 | 21 | 218 | 3.2 | 11.3 | 0.00 | 0.18 | 0.00 | 68 | 1011.9 |
| 20260505161622 | 21 | 216 | 3.2 | 8.0 | 0.00 | 0.18 | 0.00 | 67 | 1012.0 |
| 20260505161422 | 21 | 212 | 1.6 | 8.0 | 0.00 | 0.18 | 0.00 | 68 | 1012.1 |
| 20260505161222 | 21 | 211 | 1.6 | 8.0 | 0.00 | 0.18 | 0.00 | 68 | 1012.1 |
| 20260505161022 | 21 | 205 | 3.2 | 4.8 | 0.00 | 0.18 | 0.00 | 69 | 1012.0 |
| 20260505160822 | 21 | 207 | 3.2 | 4.8 | 0.00 | 0.18 | 0.00 | 68 | 1012.0 |
| 20260505160623 | 21 | 214 | 3.2 | 9.7 | 0.00 | 0.18 | 0.00 | 68 | 1012.1 |
| 20260505160443 | 21 | 217 | 3.2 | 9.7 | 0.00 | 0.18 | 0.00 | 69 | 1012.1 |
| 20260505160243 | 21 | 216 | 4.8 | 9.7 | 0.00 | 0.18 | 0.00 | 70 | 1012.1 |
| 20260505153222 | 21 | 214 | 3.2 | 11.3 | 0.00 | 0.18 | 0.00 | 68 | 1012.4 |
| 20260505153022 | 21 | 212 | 3.2 | 11.3 | 0.00 | 0.18 | 0.00 | 69 | 1012.4 |
| 20260505152843 | 21 | 212 | 3.2 | 8.0 | 0.00 | 0.18 | 0.00 | 70 | 1012.3 |
| 20260505152622 | 21 | 210 | 1.6 | 8.0 | 0.00 | 0.18 | 0.00 | 70 | 1012.2 |
| 20260505152422 | 20 | 213 | 1.6 | 8.0 | 0.00 | 0.18 | 0.00 | 71 | 1012.2 |
| 20260505152222 | 20 | 213 | 1.6 | 8.0 | 0.00 | 0.18 | 0.00 | 70 | 1012.2 |
| 20260505152022 | 20 | 212 | 1.6 | 6.4 | 0.00 | 0.18 | 0.00 | 71 | 1012.2 |
| 20260505151822 | 20 | 215 | 1.6 | 6.4 | 0.00 | 0.18 | 0.00 | 70 | 1012.2 |
| 20260505151625 | 20 | 219 | 3.2 | 6.4 | 0.00 | 0.18 | 0.00 | 71 | 1012.2 |
| 20260505151422 | 20 | 219 | 3.2 | 8.0 | 0.00 | 0.18 | 0.00 | 72 | 1012.2 |
| 20260505151243 | 20 | 220 | 3.2 | 8.0 | 0.00 | 0.18 | 0.00 | 72 | 1012.3 |
| 20260505151022 | 20 | 218 | 3.2 | 8.0 | 0.00 | 0.18 | 0.00 | 71 | 1012.3 |
| 20260505150822 | 20 | 214 | 3.2 | 8.0 | 0.00 | 0.18 | 0.00 | 71 | 1012.3 |
| 20260505150622 | 20 | 212 | 3.2 | 8.0 | 0.00 | 0.18 | 0.00 | 71 | 1012.3 |
| 20260505150422 | 20 | 210 | 3.2 | 8.0 | 0.00 | 0.18 | 0.00 | 71 | 1012.2 |
| 20260505150243 | 20 | 207 | 3.2 | 8.0 | 0.00 | 0.18 | 0.00 | 70 | 1012.2 |
| 20260505140622 | 18 | 0 | 0.0 | 0.0 | 0.00 | 0.18 | 0.00 | 74 | 1011.8 |
| 20260505140422 | 18 | 0 | 0.0 | 0.0 | 0.00 | 0.18 | 0.00 | 74 | 1011.8 |
| 20260505140222 | 18 | 0 | 0.0 | 0.0 | 0.00 | 0.18 | 0.00 | 74 | 1011.7 |
| 20260505130243 | 17 | 0 | 0.0 | 0.0 | 0.00 | 0.18 | 0.00 | 77 | 1011.4 |
| 20260505124822 | 17 | 0 | 0.0 | 0.0 | 0.00 | 0.18 | 0.00 | 78 | 1011.5 |
| 20260505124622 | 16 | 0 | 0.0 | 0.0 | 0.00 | 0.18 | 0.00 | 78 | 1011.5 |
| 20260505124422 | 16 | 0 | 0.0 | 0.0 | 0.00 | 0.18 | 0.00 | 78 | 1011.5 |
| 20260505124243 | 16 | 0 | 0.0 | 0.0 | 0.00 | 0.18 | 0.00 | 78 | 1011.4 |
| 20260505124022 | 16 | 0 | 0.0 | 0.0 | 0.00 | 0.18 | 0.00 | 79 | 1011.4 |
| 20260505123822 | 16 | 0 | 0.0 | 0.0 | 0.00 | 0.18 | 0.00 | 79 | 1011.4 |
| 20260505123643 | 16 | 0 | 0.0 | 0.0 | 0.00 | 0.18 | 0.00 | 79 | 1011.5 |
| 20260505123422 | 16 | 0 | 0.0 | 0.0 | 0.00 | 0.18 | 0.00 | 79 | 1011.4 |
| 20260505123222 | 16 | 0 | 0.0 | 0.0 | 0.00 | 0.18 | 0.00 | 79 | 1011.5 |
| 20260505123023 | 16 | 0 | 0.0 | 0.0 | 0.00 | 0.18 | 0.00 | 79 | 1011.5 |
| 20260505122823 | 16 | 0 | 0.0 | 0.0 | 0.00 | 0.18 | 0.00 | 80 | 1011.5 |
| 20260505122622 | 16 | 0 | 0.0 | 0.0 | 0.00 | 0.18 | 0.00 | 80 | 1011.4 |
| 20260505122422 | 16 | 0 | 0.0 | 0.0 | 0.00 | 0.18 | 0.00 | 80 | 1011.4 |
| 20260505122222 | 16 | 0 | 0.0 | 0.0 | 0.00 | 0.18 | 0.00 | 80 | 1011.5 |
| 20260505122043 | 16 | 0 | 0.0 | 0.0 | 0.00 | 0.18 | 0.00 | 80 | 1011.5 |
| 20260505121822 | 16 | 0 | 0.0 | 0.0 | 0.00 | 0.18 | 0.00 | 80 | 1011.6 |
| 20260505121622 | 16 | 0 | 0.0 | 0.0 | 0.00 | 0.18 | 0.00 | 80 | 1011.7 |
| 20260505121422 | 15 | 0 | 0.0 | 0.0 | 0.00 | 0.18 | 0.00 | 80 | 1011.6 |
| 20260505121223 | 15 | 0 | 0.0 | 0.0 | 0.00 | 0.18 | 0.00 | 80 | 1011.6 |
| 20260505121022 | 15 | 0 | 0.0 | 0.0 | 0.00 | 0.18 | 0.00 | 80 | 1011.6 |
| 20260505120822 | 15 | 0 | 0.0 | 0.0 | 0.00 | 0.18 | 0.00 | 80 | 1011.6 |
| 20260505120643 | 15 | 0 | 0.0 | 0.0 | 0.00 | 0.18 | 0.00 | 81 | 1011.5 |
| 20260505120422 | 15 | 0 | 0.0 | 0.0 | 0.00 | 0.18 | 0.00 | 81 | 1011.5 |
| 20260505120244 | 15 | 0 | 0.0 | 0.0 | 0.00 | 0.18 | 0.00 | 81 | 1011.4 |
| 20260505120022 | 15 | 0 | 0.0 | 0.0 | 0.00 | 0.18 | 0.00 | 81 | 1011.4 |
| 20260505115822 | 15 | 0 | 0.0 | 0.0 | 0.00 | 0.18 | 0.00 | 81 | 1011.3 |
| 20260505115643 | 15 | 0 | 0.0 | 0.0 | 0.00 | 0.18 | 0.00 | 81 | 1011.3 |
| 20260505115422 | 15 | 0 | 0.0 | 0.0 | 0.00 | 0.18 | 0.00 | 81 | 1011.3 |
| 20260505115222 | 15 | 0 | 0.0 | 0.0 | 0.00 | 0.18 | 0.00 | 81 | 1011.3 |
| 20260505115022 | 15 | 0 | 0.0 | 0.0 | 0.00 | 0.18 | 0.00 | 82 | 1011.2 |
| 20260505114822 | 15 | 0 | 0.0 | 0.0 | 0.00 | 0.18 | 0.00 | 82 | 1011.3 |
| 20260505114622 | 15 | 0 | 0.0 | 0.0 | 0.00 | 0.18 | 0.00 | 82 | 1011.2 |
| 20260505114422 | 14 | 0 | 0.0 | 0.0 | 0.00 | 0.18 | 0.00 | 82 | 1011.2 |
| 20260505114223 | 14 | 0 | 0.0 | 0.0 | 0.00 | 0.18 | 0.00 | 82 | 1011.2 |
| 20260505114022 | 14 | 0 | 0.0 | 0.0 | 0.00 | 0.18 | 0.00 | 82 | 1011.2 |
| 20260505113843 | 14 | 0 | 0.0 | 0.0 | 0.00 | 0.18 | 0.00 | 82 | 1011.1 |
| 20260505113622 | 14 | 0 | 0.0 | 0.0 | 0.00 | 0.18 | 0.00 | 83 | 1011.1 |
| 20260505113422 | 14 | 0 | 0.0 | 0.0 | 0.00 | 0.18 | 0.00 | 83 | 1011.1 |
| 20260505113223 | 13 | 0 | 0.0 | 0.0 | 0.00 | 0.18 | 0.00 | 84 | 1011.0 |
| 20260505113023 | 13 | 0 | 0.0 | 0.0 | 0.00 | 0.18 | 0.00 | 84 | 1011.0 |
| 20260505112822 | 13 | 0 | 0.0 | 0.0 | 0.00 | 0.18 | 0.00 | 84 | 1011.1 |
| 20260505112624 | 13 | 0 | 0.0 | 0.0 | 0.00 | 0.18 | 0.00 | 84 | 1011.1 |
| 20260505112422 | 13 | 0 | 0.0 | 0.0 | 0.00 | 0.18 | 0.00 | 84 | 1011.0 |
| 20260505112223 | 13 | 0 | 0.0 | 0.0 | 0.00 | 0.18 | 0.00 | 84 | 1011.1 |
| 20260505112022 | 13 | 0 | 0.0 | 0.0 | 0.00 | 0.18 | 0.00 | 84 | 1011.2 |
| 20260505111822 | 13 | 0 | 0.0 | 0.0 | 0.00 | 0.18 | 0.00 | 84 | 1011.1 |
| 20260505111624 | 13 | 0 | 0.0 | 0.0 | 0.00 | 0.18 | 0.00 | 84 | 1011.1 |
| 20260505111422 | 13 | 0 | 0.0 | 0.0 | 0.00 | 0.18 | 0.00 | 84 | 1011.1 |
| 20260505111222 | 13 | 0 | 0.0 | 0.0 | 0.00 | 0.18 | 0.00 | 83 | 1011.1 |
| 20260505111023 | 13 | 0 | 0.0 | 0.0 | 0.00 | 0.18 | 0.00 | 83 | 1011.1 |
| 20260505110822 | 13 | 0 | 0.0 | 0.0 | 0.00 | 0.18 | 0.00 | 83 | 1011.1 |
| 20260505110622 | 13 | 0 | 0.0 | 0.0 | 0.00 | 0.18 | 0.00 | 83 | 1011.0 |
| 20260505110422 | 13 | 0 | 0.0 | 0.0 | 0.00 | 0.18 | 0.00 | 83 | 1011.1 |
| 20260505110222 | 13 | 0 | 0.0 | 0.0 | 0.00 | 0.18 | 0.00 | 83 | 1011.0 |
| 20260505102222 | 13 | 0 | 0.0 | 0.0 | 0.00 | 0.18 | 0.00 | 83 | 1010.9 |
| 20260505102022 | 13 | 0 | 0.0 | 0.0 | 0.00 | 0.18 | 0.00 | 83 | 1010.8 |
| 20260505101844 | 13 | 0 | 0.0 | 0.0 | 0.00 | 0.18 | 0.00 | 83 | 1010.8 |
| 20260505101622 | 13 | 0 | 0.0 | 0.0 | 0.00 | 0.18 | 0.00 | 83 | 1010.7 |
| 20260505101422 | 13 | 0 | 0.0 | 0.0 | 0.00 | 0.18 | 0.00 | 83 | 1010.7 |
| 20260505101222 | 13 | 0 | 0.0 | 0.0 | 0.00 | 0.18 | 0.00 | 83 | 1010.7 |
| 20260505101023 | 13 | 0 | 0.0 | 0.0 | 0.00 | 0.18 | 0.00 | 83 | 1010.6 |
| 20260505100843 | 13 | 0 | 0.0 | 0.0 | 0.00 | 0.18 | 0.00 | 83 | 1010.7 |
| 20260505100622 | 13 | 0 | 0.0 | 0.0 | 0.00 | 0.18 | 0.00 | 83 | 1010.7 |
| 20260505100422 | 13 | 0 | 0.0 | 0.0 | 0.00 | 0.18 | 0.00 | 83 | 1010.7 |
| 20260505100222 | 13 | 0 | 0.0 | 0.0 | 0.00 | 0.18 | 0.00 | 83 | 1010.7 |
| 20260505100022 | 13 | 0 | 0.0 | 0.0 | 0.00 | 0.18 | 0.00 | 83 | 1010.7 |
| 20260505095822 | 13 | 0 | 0.0 | 0.0 | 0.00 | 0.18 | 0.00 | 83 | 1010.8 |
| 20260505095643 | 13 | 0 | 0.0 | 0.0 | 0.00 | 0.18 | 0.00 | 83 | 1010.7 |
| 20260505095443 | 13 | 0 | 0.0 | 0.0 | 0.00 | 0.18 | 0.00 | 83 | 1010.7 |
| 20260505095243 | 13 | 0 | 0.0 | 0.0 | 0.00 | 0.18 | 0.00 | 83 | 1010.7 |
| 20260505095022 | 13 | 0 | 0.0 | 0.0 | 0.00 | 0.18 | 0.00 | 83 | 1010.7 |
| 20260505094822 | 13 | 0 | 0.0 | 0.0 | 0.00 | 0.18 | 0.00 | 83 | 1010.7 |
| 20260505094622 | 13 | 0 | 0.0 | 0.0 | 0.00 | 0.18 | 0.00 | 82 | 1010.7 |
| 20260505094422 | 13 | 0 | 0.0 | 0.0 | 0.00 | 0.18 | 0.00 | 82 | 1010.7 |
| 20260505094222 | 13 | 0 | 0.0 | 0.0 | 0.00 | 0.18 | 0.00 | 82 | 1010.6 |
| 20260505094022 | 13 | 0 | 0.0 | 0.0 | 0.00 | 0.18 | 0.00 | 82 | 1010.6 |
| 20260505093822 | 13 | 0 | 0.0 | 0.0 | 0.00 | 0.18 | 0.00 | 82 | 1010.6 |
| 20260505093622 | 13 | 0 | 0.0 | 0.0 | 0.00 | 0.18 | 0.00 | 82 | 1010.6 |
| 20260505093422 | 13 | 0 | 0.0 | 0.0 | 0.00 | 0.18 | 0.00 | 82 | 1010.7 |
| 20260505093222 | 13 | 0 | 0.0 | 0.0 | 0.00 | 0.18 | 0.00 | 82 | 1010.7 |
| 20260505093022 | 13 | 0 | 0.0 | 0.0 | 0.00 | 0.18 | 0.00 | 81 | 1010.7 |
| 20260505092822 | 13 | 0 | 0.0 | 0.0 | 0.00 | 0.18 | 0.00 | 81 | 1010.7 |
| 20260505092644 | 13 | 0 | 0.0 | 0.0 | 0.00 | 0.18 | 0.00 | 81 | 1010.6 |
| 20260505092422 | 13 | 0 | 0.0 | 0.0 | 0.00 | 0.18 | 0.00 | 81 | 1010.7 |
| 20260505092222 | 14 | 0 | 0.0 | 0.0 | 0.00 | 0.18 | 0.00 | 81 | 1010.6 |
| 20260505092022 | 14 | 0 | 0.0 | 0.0 | 0.00 | 0.18 | 0.00 | 81 | 1010.6 |
| 20260505091822 | 14 | 0 | 0.0 | 0.0 | 0.00 | 0.18 | 0.00 | 81 | 1010.6 |
| 20260505091622 | 14 | 0 | 0.0 | 0.0 | 0.00 | 0.18 | 0.00 | 81 | 1010.6 |
| 20260505091422 | 14 | 0 | 0.0 | 0.0 | 0.00 | 0.18 | 0.00 | 81 | 1010.6 |
| 20260505091222 | 14 | 0 | 0.0 | 0.0 | 0.00 | 0.18 | 0.00 | 80 | 1010.7 |
| 20260505091022 | 14 | 0 | 0.0 | 0.0 | 0.00 | 0.18 | 0.00 | 80 | 1010.7 |
| 20260505090822 | 14 | 0 | 0.0 | 0.0 | 0.00 | 0.18 | 0.00 | 80 | 1010.6 |
| 20260505090643 | 14 | 0 | 0.0 | 0.0 | 0.00 | 0.18 | 0.00 | 80 | 1010.7 |
| 20260505090422 | 14 | 0 | 0.0 | 0.0 | 0.00 | 0.18 | 0.00 | 80 | 1010.7 |
| 20260505090222 | 14 | 0 | 0.0 | 0.0 | 0.00 | 0.18 | 0.00 | 80 | 1010.7 |
| 20260505090022 | 14 | 0 | 0.0 | 0.0 | 0.00 | 0.18 | 0.00 | 79 | 1010.7 |
| 20260505085822 | 14 | 0 | 0.0 | 0.0 | 0.00 | 0.18 | 0.00 | 79 | 1010.7 |
| 20260505085622 | 14 | 0 | 0.0 | 0.0 | 0.00 | 0.18 | 0.00 | 79 | 1010.7 |
| 20260505085422 | 14 | 0 | 0.0 | 0.0 | 0.00 | 0.18 | 0.00 | 79 | 1010.7 |
| 20260505085222 | 14 | 0 | 0.0 | 0.0 | 0.00 | 0.18 | 0.00 | 79 | 1010.7 |
| 20260505085022 | 14 | 0 | 0.0 | 0.0 | 0.00 | 0.18 | 0.00 | 79 | 1010.7 |
| 20260505084824 | 14 | 0 | 0.0 | 0.0 | 0.00 | 0.18 | 0.00 | 79 | 1010.7 |
| 20260505084622 | 14 | 0 | 0.0 | 0.0 | 0.00 | 0.18 | 0.00 | 79 | 1010.7 |
| 20260505084423 | 14 | 0 | 0.0 | 0.0 | 0.00 | 0.18 | 0.00 | 79 | 1010.7 |
| 20260505084243 | 14 | 0 | 0.0 | 0.0 | 0.00 | 0.18 | 0.00 | 79 | 1010.7 |
| 20260505084022 | 14 | 0 | 0.0 | 0.0 | 0.00 | 0.18 | 0.00 | 79 | 1010.7 |
| 20260505083823 | 14 | 0 | 0.0 | 0.0 | 0.00 | 0.18 | 0.00 | 79 | 1010.7 |
| 20260505083622 | 14 | 0 | 0.0 | 0.0 | 0.00 | 0.18 | 0.00 | 78 | 1010.7 |
| 20260505083422 | 15 | 0 | 0.0 | 0.0 | 0.00 | 0.18 | 0.00 | 78 | 1010.7 |
| 20260505083222 | 15 | 0 | 0.0 | 0.0 | 0.00 | 0.18 | 0.00 | 78 | 1010.7 |
| 20260505083022 | 15 | 0 | 0.0 | 0.0 | 0.00 | 0.18 | 0.00 | 78 | 1010.6 |
| 20260505082823 | 15 | 0 | 0.0 | 0.0 | 0.00 | 0.18 | 0.00 | 78 | 1010.6 |
| 20260505082622 | 15 | 0 | 0.0 | 0.0 | 0.00 | 0.18 | 0.00 | 78 | 1010.6 |
| 20260505082422 | 15 | 0 | 0.0 | 0.0 | 0.00 | 0.18 | 0.00 | 78 | 1010.6 |
| 20260505082222 | 15 | 0 | 0.0 | 0.0 | 0.00 | 0.18 | 0.00 | 78 | 1010.6 |
| 20260505082022 | 15 | 0 | 0.0 | 0.0 | 0.00 | 0.18 | 0.00 | 77 | 1010.6 |
| 20260505081823 | 15 | 0 | 0.0 | 0.0 | 0.00 | 0.18 | 0.00 | 77 | 1010.5 |
| 20260505081622 | 15 | 0 | 0.0 | 0.0 | 0.00 | 0.18 | 0.00 | 77 | 1010.5 |
| 20260505081422 | 15 | 0 | 0.0 | 0.0 | 0.00 | 0.18 | 0.00 | 77 | 1010.5 |
| 20260505081222 | 15 | 0 | 0.0 | 0.0 | 0.00 | 0.18 | 0.00 | 77 | 1010.5 |
| 20260505081022 | 15 | 0 | 0.0 | 0.0 | 0.00 | 0.18 | 0.00 | 77 | 1010.4 |
| 20260505080843 | 15 | 0 | 0.0 | 0.0 | 0.00 | 0.18 | 0.00 | 77 | 1010.5 |
| 20260505080622 | 15 | 0 | 0.0 | 0.0 | 0.00 | 0.18 | 0.00 | 77 | 1010.5 |
| 20260505080422 | 15 | 0 | 0.0 | 0.0 | 0.00 | 0.18 | 0.00 | 76 | 1010.4 |
| 20260505080243 | 15 | 0 | 0.0 | 0.0 | 0.00 | 0.18 | 0.00 | 77 | 1010.4 |
| 20260505080022 | 15 | 0 | 0.0 | 0.0 | 0.00 | 0.18 | 0.00 | 76 | 1010.4 |
| 20260505075822 | 15 | 0 | 0.0 | 0.0 | 0.00 | 0.18 | 0.00 | 76 | 1010.4 |
| 20260505075643 | 15 | 0 | 0.0 | 0.0 | 0.00 | 0.18 | 0.00 | 76 | 1010.4 |
| 20260505075422 | 15 | 0 | 0.0 | 0.0 | 0.00 | 0.18 | 0.00 | 76 | 1010.3 |
| 20260505075222 | 15 | 0 | 0.0 | 0.0 | 0.00 | 0.18 | 0.00 | 76 | 1010.4 |
| 20260505075022 | 15 | 0 | 0.0 | 0.0 | 0.00 | 0.18 | 0.00 | 75 | 1010.3 |
| 20260505074822 | 15 | 0 | 0.0 | 0.0 | 0.00 | 0.18 | 0.00 | 75 | 1010.4 |
| 20260505074623 | 15 | 0 | 0.0 | 0.0 | 0.00 | 0.18 | 0.00 | 75 | 1010.3 |
| 20260505074422 | 15 | 0 | 0.0 | 0.0 | 0.00 | 0.18 | 0.00 | 75 | 1010.4 |
| 20260505074222 | 15 | 0 | 0.0 | 0.0 | 0.00 | 0.18 | 0.00 | 75 | 1010.4 |
| 20260505074022 | 15 | 0 | 0.0 | 0.0 | 0.00 | 0.18 | 0.00 | 75 | 1010.3 |
| 20260505073822 | 15 | 0 | 0.0 | 0.0 | 0.00 | 0.18 | 0.00 | 75 | 1010.3 |
| 20260505073622 | 15 | 0 | 0.0 | 0.0 | 0.00 | 0.18 | 0.00 | 75 | 1010.4 |
| 20260505073422 | 15 | 0 | 0.0 | 0.0 | 0.00 | 0.18 | 0.00 | 76 | 1010.3 |
| 20260505073222 | 15 | 0 | 0.0 | 0.0 | 0.00 | 0.18 | 0.00 | 75 | 1010.4 |
| 20260505073022 | 15 | 0 | 0.0 | 0.0 | 0.00 | 0.18 | 0.00 | 75 | 1010.3 |
| 20260505072822 | 15 | 0 | 0.0 | 0.0 | 0.00 | 0.18 | 0.00 | 75 | 1010.3 |
| 20260505072622 | 15 | 0 | 0.0 | 0.0 | 0.00 | 0.18 | 0.00 | 75 | 1010.3 |
| 20260505072422 | 15 | 0 | 0.0 | 0.0 | 0.00 | 0.18 | 0.00 | 75 | 1010.3 |
| 20260505072222 | 15 | 0 | 0.0 | 0.0 | 0.00 | 0.18 | 0.00 | 75 | 1010.3 |
| 20260505072022 | 15 | 0 | 0.0 | 0.0 | 0.00 | 0.18 | 0.00 | 75 | 1010.3 |
| 20260505071822 | 15 | 0 | 0.0 | 0.0 | 0.00 | 0.18 | 0.00 | 75 | 1010.3 |
| 20260505071623 | 16 | 0 | 0.0 | 0.0 | 0.00 | 0.18 | 0.00 | 75 | 1010.2 |
| 20260505071422 | 16 | 0 | 0.0 | 0.0 | 0.00 | 0.18 | 0.00 | 75 | 1010.3 |
| 20260505071244 | 16 | 0 | 0.0 | 0.0 | 0.00 | 0.18 | 0.00 | 75 | 1010.3 |
| 20260505071022 | 16 | 0 | 0.0 | 0.0 | 0.00 | 0.18 | 0.00 | 75 | 1010.3 |
| 20260505070822 | 16 | 0 | 0.0 | 0.0 | 0.00 | 0.18 | 0.00 | 75 | 1010.4 |
| 20260505070622 | 16 | 0 | 0.0 | 0.0 | 0.00 | 0.18 | 0.00 | 74 | 1010.3 |
| 20260505070422 | 16 | 0 | 0.0 | 0.0 | 0.00 | 0.18 | 0.00 | 74 | 1010.3 |
| 20260505070222 | 16 | 0 | 0.0 | 0.0 | 0.00 | 0.18 | 0.00 | 74 | 1010.3 |
| 20260505070022 | 16 | 0 | 0.0 | 0.0 | 0.00 | 0.18 | 0.00 | 74 | 1010.4 |
| 20260505065822 | 16 | 0 | 0.0 | 0.0 | 0.00 | 0.18 | 0.00 | 74 | 1010.4 |
| 20260505065643 | 16 | 0 | 0.0 | 0.0 | 0.00 | 0.18 | 0.00 | 74 | 1010.4 |
| 20260505065422 | 16 | 0 | 0.0 | 0.0 | 0.00 | 0.18 | 0.00 | 74 | 1010.4 |
| 20260505065222 | 16 | 0 | 0.0 | 0.0 | 0.00 | 0.18 | 0.00 | 73 | 1010.5 |
| 20260505065022 | 16 | 0 | 0.0 | 0.0 | 0.00 | 0.18 | 0.00 | 73 | 1010.4 |
| 20260505064822 | 16 | 0 | 0.0 | 0.0 | 0.00 | 0.18 | 0.00 | 73 | 1010.4 |
| 20260505064622 | 16 | 0 | 0.0 | 0.0 | 0.00 | 0.18 | 0.00 | 73 | 1010.4 |
| 20260505064422 | 16 | 0 | 0.0 | 0.0 | 0.00 | 0.18 | 0.00 | 73 | 1010.4 |
| 20260505064222 | 16 | 0 | 0.0 | 0.0 | 0.00 | 0.18 | 0.00 | 73 | 1010.3 |
| 20260505064022 | 16 | 0 | 0.0 | 0.0 | 0.00 | 0.18 | 0.00 | 73 | 1010.4 |
| 20260505063822 | 16 | 0 | 0.0 | 0.0 | 0.00 | 0.18 | 0.00 | 72 | 1010.4 |
| 20260505063622 | 16 | 0 | 0.0 | 0.0 | 0.00 | 0.18 | 0.00 | 72 | 1010.4 |
| 20260505063422 | 16 | 0 | 0.0 | 0.0 | 0.00 | 0.18 | 0.00 | 72 | 1010.4 |
| 20260505063222 | 16 | 0 | 0.0 | 0.0 | 0.00 | 0.18 | 0.00 | 72 | 1010.4 |
| 20260505063023 | 16 | 0 | 0.0 | 0.0 | 0.00 | 0.18 | 0.00 | 72 | 1010.4 |
| 20260505062822 | 16 | 0 | 0.0 | 0.0 | 0.00 | 0.18 | 0.00 | 71 | 1010.5 |
| 20260505062643 | 16 | 0 | 0.0 | 0.0 | 0.00 | 0.18 | 0.00 | 71 | 1010.5 |
| 20260505062422 | 16 | 0 | 0.0 | 0.0 | 0.00 | 0.18 | 0.00 | 71 | 1010.5 |
| 20260505062222 | 17 | 0 | 0.0 | 0.0 | 0.00 | 0.18 | 0.00 | 71 | 1010.5 |
| 20260505062023 | 17 | 0 | 0.0 | 0.0 | 0.00 | 0.18 | 0.00 | 71 | 1010.5 |
| 20260505061843 | 17 | 0 | 0.0 | 0.0 | 0.00 | 0.18 | 0.00 | 71 | 1010.5 |
| 20260505061622 | 17 | 0 | 0.0 | 0.0 | 0.00 | 0.18 | 0.00 | 70 | 1010.5 |
| 20260505061424 | 17 | 0 | 0.0 | 0.0 | 0.00 | 0.18 | 0.00 | 70 | 1010.5 |
| 20260505061222 | 17 | 0 | 0.0 | 0.0 | 0.00 | 0.18 | 0.00 | 70 | 1010.5 |
| 20260505061022 | 17 | 0 | 0.0 | 0.0 | 0.00 | 0.18 | 0.00 | 70 | 1010.5 |
| 20260505060822 | 17 | 0 | 0.0 | 0.0 | 0.00 | 0.18 | 0.00 | 70 | 1010.6 |
| 20260505060622 | 17 | 0 | 0.0 | 0.0 | 0.00 | 0.18 | 0.00 | 70 | 1010.6 |
| 20260505060422 | 17 | 0 | 0.0 | 0.0 | 0.00 | 0.18 | 0.00 | 70 | 1010.6 |
| 20260505060223 | 17 | 0 | 0.0 | 0.0 | 0.00 | 0.18 | 0.00 | 70 | 1010.6 |
| 20260505060022 | 17 | 0 | 0.0 | 0.0 | 0.00 | 0.18 | 0.00 | 69 | 1010.6 |
| 20260505055822 | 17 | 0 | 0.0 | 0.0 | 0.00 | 0.18 | 0.00 | 69 | 1010.7 |
| 20260505055623 | 17 | 0 | 0.0 | 0.0 | 0.00 | 0.18 | 0.00 | 69 | 1010.7 |
| 20260505055422 | 17 | 0 | 0.0 | 0.0 | 0.00 | 0.18 | 0.00 | 69 | 1010.6 |
| 20260505055222 | 17 | 0 | 0.0 | 0.0 | 0.00 | 0.18 | 0.00 | 69 | 1010.7 |
| 20260505055022 | 17 | 0 | 0.0 | 0.0 | 0.00 | 0.18 | 0.00 | 69 | 1010.7 |
| 20260505054822 | 17 | 0 | 0.0 | 0.0 | 0.00 | 0.18 | 0.00 | 68 | 1010.7 |
| 20260505054622 | 17 | 0 | 0.0 | 0.0 | 0.00 | 0.18 | 0.00 | 69 | 1010.6 |
| 20260505054422 | 17 | 187 | 0.0 | 1.6 | 0.00 | 0.18 | 0.00 | 69 | 1010.7 |
| 20260505054222 | 17 | 194 | 0.0 | 1.6 | 0.00 | 0.18 | 0.00 | 68 | 1010.6 |
| 20260505054022 | 17 | 201 | 0.0 | 1.6 | 0.00 | 0.18 | 0.00 | 68 | 1010.6 |
| 20260505053822 | 17 | 207 | 0.0 | 1.6 | 0.00 | 0.18 | 0.00 | 68 | 1010.6 |
| 20260505053644 | 17 | 214 | 0.0 | 1.6 | 0.00 | 0.18 | 0.00 | 68 | 1010.7 |
| 20260505053422 | 18 | 217 | 0.0 | 1.6 | 0.00 | 0.18 | 0.00 | 68 | 1010.6 |
| 20260505053222 | 18 | 220 | 0.0 | 1.6 | 0.00 | 0.18 | 0.00 | 68 | 1010.6 |
| 20260505053022 | 18 | 220 | 0.0 | 1.6 | 0.00 | 0.18 | 0.00 | 68 | 1010.6 |
| 20260505052822 | 18 | 220 | 0.0 | 1.6 | 0.00 | 0.18 | 0.00 | 68 | 1010.6 |
| 20260505052622 | 18 | 222 | 0.0 | 1.6 | 0.00 | 0.18 | 0.00 | 68 | 1010.7 |
| 20260505052422 | 18 | 223 | 0.0 | 1.6 | 0.00 | 0.18 | 0.00 | 67 | 1010.7 |
| 20260505052243 | 18 | 223 | 0.0 | 1.6 | 0.00 | 0.18 | 0.00 | 67 | 1010.7 |
| 20260505052022 | 18 | 223 | 0.0 | 1.6 | 0.00 | 0.18 | 0.00 | 67 | 1010.8 |
| 20260505051822 | 18 | 223 | 0.0 | 1.6 | 0.00 | 0.18 | 0.00 | 67 | 1010.8 |
| 20260505051622 | 18 | 223 | 0.0 | 1.6 | 0.00 | 0.18 | 0.00 | 67 | 1010.8 |
| 20260505051422 | 18 | 223 | 0.0 | 1.6 | 0.00 | 0.18 | 0.00 | 67 | 1010.8 |
| 20260505051222 | 18 | 223 | 0.0 | 1.6 | 0.00 | 0.18 | 0.00 | 67 | 1010.9 |
| 20260505051022 | 18 | 223 | 0.0 | 1.6 | 0.00 | 0.18 | 0.00 | 67 | 1010.9 |
| 20260505050822 | 18 | 223 | 0.0 | 1.6 | 0.00 | 0.18 | 0.00 | 66 | 1011.0 |
| 20260505050623 | 18 | 223 | 0.0 | 1.6 | 0.00 | 0.18 | 0.00 | 67 | 1010.9 |
| 20260505050422 | 18 | 223 | 0.0 | 1.6 | 0.00 | 0.18 | 0.00 | 66 | 1010.9 |
| 20260505050243 | 18 | 223 | 0.0 | 1.6 | 0.00 | 0.18 | 0.00 | 66 | 1011.0 |
| 20260505041643 | 19 | 220 | 0.0 | 4.8 | 0.00 | 0.18 | 0.18 | 64 | 1010.6 |
| 20260505041422 | 19 | 220 | 0.0 | 4.8 | 0.00 | 0.18 | 0.18 | 63 | 1010.6 |
| 20260505041244 | 19 | 217 | 0.0 | 3.2 | 0.00 | 0.18 | 0.18 | 63 | 1010.6 |
| 20260505041022 | 19 | 220 | 0.0 | 3.2 | 0.00 | 0.18 | 0.18 | 63 | 1010.6 |
| 20260505040822 | 19 | 222 | 0.0 | 3.2 | 0.00 | 0.18 | 0.18 | 63 | 1010.5 |
| 20260505040622 | 19 | 222 | 0.0 | 3.2 | 0.00 | 0.18 | 0.18 | 63 | 1010.5 |
| 20260505040444 | 19 | 222 | 0.0 | 3.2 | 0.00 | 0.18 | 0.18 | 63 | 1010.6 |
| 20260505040222 | 20 | 224 | 0.0 | 3.2 | 0.00 | 0.18 | 0.18 | 63 | 1010.5 |
| 20260505040023 | 20 | 224 | 0.0 | 3.2 | 0.00 | 0.18 | 0.18 | 63 | 1010.5 |
| 20260505035822 | 20 | 220 | 0.0 | 3.2 | 0.00 | 0.18 | 0.18 | 63 | 1010.4 |
| 20260505035622 | 20 | 221 | 0.0 | 3.2 | 0.00 | 0.18 | 0.18 | 63 | 1010.5 |
| 20260505035443 | 20 | 221 | 1.6 | 3.2 | 0.00 | 0.18 | 0.18 | 63 | 1010.4 |
| 20260505035244 | 20 | 222 | 1.6 | 3.2 | 0.00 | 0.18 | 0.18 | 62 | 1010.4 |
| 20260505035022 | 20 | 221 | 1.6 | 3.2 | 0.00 | 0.18 | 0.18 | 62 | 1010.4 |
| 20260505034822 | 20 | 218 | 1.6 | 6.4 | 0.00 | 0.18 | 0.18 | 62 | 1010.4 |
| 20260505034622 | 20 | 220 | 1.6 | 6.4 | 0.00 | 0.18 | 0.18 | 62 | 1010.4 |
| 20260505034422 | 20 | 220 | 1.6 | 6.4 | 0.00 | 0.18 | 0.18 | 62 | 1010.4 |
| 20260505034243 | 20 | 220 | 1.6 | 6.4 | 0.00 | 0.18 | 0.18 | 62 | 1010.3 |
| 20260505034022 | 20 | 220 | 1.6 | 6.4 | 0.00 | 0.18 | 0.18 | 62 | 1010.3 |
| 20260505033822 | 20 | 222 | 1.6 | 6.4 | 0.00 | 0.18 | 0.18 | 62 | 1010.3 |
| 20260505033622 | 20 | 220 | 1.6 | 6.4 | 0.00 | 0.18 | 0.18 | 62 | 1010.3 |
| 20260505033422 | 20 | 220 | 1.6 | 6.4 | 0.00 | 0.18 | 0.18 | 61 | 1010.2 |
| 20260505033222 | 20 | 219 | 1.6 | 6.4 | 0.00 | 0.18 | 0.18 | 61 | 1010.2 |
| 20260505033022 | 20 | 219 | 1.6 | 8.0 | 0.00 | 0.18 | 0.18 | 61 | 1010.2 |
| 20260505032843 | 20 | 220 | 1.6 | 8.0 | 0.00 | 0.18 | 0.18 | 61 | 1010.2 |
| 20260505032622 | 20 | 215 | 1.6 | 8.0 | 0.00 | 0.18 | 0.18 | 61 | 1010.2 |
| 20260505032422 | 20 | 216 | 1.6 | 8.0 | 0.00 | 0.18 | 0.18 | 61 | 1010.2 |
| 20260505032222 | 20 | 216 | 1.6 | 8.0 | 0.00 | 0.18 | 0.18 | 61 | 1010.2 |
| 20260505032022 | 20 | 211 | 1.6 | 6.4 | 0.00 | 0.18 | 0.18 | 61 | 1010.2 |
| 20260505031822 | 20 | 211 | 1.6 | 6.4 | 0.00 | 0.18 | 0.18 | 61 | 1010.2 |
| 20260505031622 | 20 | 213 | 1.6 | 6.4 | 0.00 | 0.18 | 0.18 | 61 | 1010.2 |
| 20260505031422 | 20 | 207 | 1.6 | 6.4 | 0.00 | 0.18 | 0.18 | 61 | 1010.2 |
| 20260505031222 | 20 | 206 | 1.6 | 6.4 | 0.00 | 0.18 | 0.18 | 61 | 1010.2 |
| 20260505031024 | 20 | 207 | 1.6 | 4.8 | 0.00 | 0.18 | 0.18 | 61 | 1010.2 |
| 20260505030844 | 20 | 210 | 1.6 | 4.8 | 0.00 | 0.18 | 0.18 | 61 | 1010.1 |
| 20260505030622 | 20 | 210 | 1.6 | 4.8 | 0.00 | 0.18 | 0.18 | 61 | 1010.1 |
| 20260505030444 | 20 | 215 | 1.6 | 4.8 | 0.00 | 0.18 | 0.18 | 61 | 1009.9 |
| 20260505030244 | 20 | 221 | 1.6 | 4.8 | 0.00 | 0.18 | 0.18 | 61 | 1009.9 |
| 20260505030023 | 20 | 225 | 1.6 | 4.8 | 0.00 | 0.18 | 0.18 | 61 | 1009.8 |